カタログに戻る

STARLINK-2187

運用中通信VLEO
NORAD 48562·PAYLOAD·🇺🇸 United States

打ち上げ May 15, 2021 から Cape Canaveral Space Force Station

Loading…

次のパス (今後24時間)

TLE

最新Source: CelesTrak SupGP

元期: Sep 14, 2026, 21:45 UTC

1 48562C 21041K   26257.90673611  .00331660  00000+0  13086-2 0  2573
2 48562  53.1467 291.0967 0007438  13.4602 208.5154 15.85895482    16

AllMySatでSTARLINK-2187をリアルタイム追跡

Download on the App Store